Location: Radomski Observatory
(40.2854°N, 79.5145°W)
Time: 22:34:51
(UTC-04:00)

Daily predictions for brighter satellites

Satellite Brightness Start Highest point End
(mag) Time Altitude Azimuth Time Altitude Azimuth Time Altitude Azimuth
NOSS 3-1 (C) 3.8 21:11:01 10° S 21:16:25 42° ESE 21:22:19 10° NE
Cosmos 2333 Rocket 4.1 21:16:17 10° N 21:19:53 17° NE 21:23:30 10° E
Cosmos 2151 3.3 21:18:18 10° SSE 21:22:17 44° E 21:26:17 10° NNE
S3M 4.3 21:16:53 10° NNW 21:22:58 71° W 21:29:04 10° S
Cosmos 2228 Rocket 4.4 21:19:28 10° NNW 21:23:43 43° W 21:28:00 10° SSW
Delta 2 Rocket 3.6 21:20:50 10° WSW 21:24:26 40° S 21:27:45 10° ESE
SL-23 DEB 4.4 21:19:43 10° NW 21:25:35 68° NNE 21:29:11 10° ESE
Cosmos 2058 3.8 21:23:23 10° SSE 21:26:56 29° E 21:30:30 10° NNE
H-2A R/B 4.0 21:23:26 10° S 21:27:04 41° W 21:30:41 10° NNW
Cosmos 2112 Rocket 4.2 21:22:39 10° NNW 21:27:51 61° ENE 21:33:04 10° SSE
Cosmos 2219 Rocket 3.6 21:27:37 10° N 21:32:08 24° NE 21:36:39 10° ESE
COSMOS 2428 3.2 21:26:55 10° NNW 21:32:24 47° ENE 21:37:51 10° SE
Cosmos 1437 Rocket 3.4 21:33:08 10° NNW 21:36:53 54° W 21:40:39 10° S
deb Chang Zheng 4 3.5 21:33:13 10° NNE 21:37:33 74° ESE 21:41:54 10° S
Cosmos 2298 Rocket 4.4 21:35:13 10° S 21:40:12 43° ESE 21:45:12 10° NNE
Cosmos 304 Rocket 3.9 21:36:28 10° NNW 21:41:17 79° WSW 21:46:04 10° SSE
Cosmos 1726 3.5 21:38:11 10° NNE 21:41:21 25° ENE 21:44:08 12° SE
Sich 1 4.0 21:40:38 10° SSE 21:44:27 29° E 21:48:15 10° NNE
PSLV R/B 3.8 21:44:56 13° SE 21:47:27 39° ENE 21:50:21 10° N
Cosmos 1939 Rocket 2.8 21:44:26 10° SSE 21:48:21 85° WSW 21:52:16 10° NNW
Cosmos 1151 Rocket 3.4 21:44:31 10° NNW 21:48:50 67° W 21:53:08 10° S
CZ-4B R/B 4.2 21:45:45 10° NNE 21:50:32 34° E 21:55:12 10° SSE
Cosmos 1633 Rocket 3.9 21:47:00 10° SSE 21:50:50 32° E 21:54:43 10° NNE
Cosmos 2237 4.3 21:48:15 10° NNW 21:54:00 74° ENE 21:59:09 13° SSE
Meteor 1-4 Rocket 3.9 21:51:35 10° NNE 21:54:43 25° ENE 21:56:51 15° ESE
DELTA 2 R/B (1) 4.3 21:49:52 10° W 21:55:00 39° SSW 21:59:15 14° SE
SPOT 5 2.8 21:51:24 10° SSE 21:55:54 70° ENE 22:00:45 10° N
USA 245 3.8 21:59:33 17° E 22:00:18 20° ENE 22:02:04 10° NNE
Cosmos 2219 3.5 21:56:18 10° SSW 22:02:03 75° WNW 22:07:49 10° NNE
Cosmos 1680 Rocket 4.2 21:58:31 10° NNW 22:03:38 54° WSW 22:08:45 10° S
Cosmos 292 Rocket 4.3 22:00:15 10° N 22:04:47 43° ENE 22:08:03 18° SE
Cosmos 2237 Rocket 3.4 22:01:49 10° N 22:06:51 31° ENE 22:10:50 14° ESE
Aureole 3 4.5 22:01:04 10° S 22:07:34 77° W 22:12:42 10° N
Cosmos 1805 Rocket 3.5 22:03:16 10° S 22:07:43 87° E 22:12:11 10° N
MetOp-B 4.2 22:03:01 13° SSE 22:07:50 73° ENE 22:13:11 10° N
Cosmos 1328 4.4 22:05:10 10° SSW 22:09:02 56° W 22:12:57 10° N
H-2A R/B 3.6 22:05:52 13° ESE 22:09:18 24° ENE 22:13:33 10° NNE
Cosmos 2333 4.3 22:04:46 10° NNW 22:10:32 75° ENE 22:14:59 17° SSE
Cosmos 2082 4.4 22:07:50 12° SSE 22:12:21 33° ESE 22:17:24 10° NE
DELTA 2 R/B(2) 3.0 22:12:04 10° W 22:13:44 76° S 22:14:48 26° E
Cosmos 1898 Rocket 3.4 22:09:49 10° SSW 22:14:58 77° ESE 22:20:12 10° NNE
Cosmos 1271 Rocket 3.3 22:11:18 10° N 22:14:59 42° ENE 22:17:01 23° SE
Cosmos 2360 Rocket 3.5 22:11:26 10° NW 22:16:33 36° WSW 22:21:39 10° S
Cosmos 220 Rocket 4.2 22:13:45 10° S 22:18:01 53° ESE 22:22:20 10° NNE
Cosmos 858 Rocket 4.4 22:13:05 10° S 22:18:16 75° ESE 22:23:29 10° NNE
CZ-4C R/B 4.4 22:18:51 19° ESE 22:20:07 24° ENE 22:22:59 10° NNE
Iridium 2 4.5 22:19:29 24° SE 22:21:06 35° E 22:24:37 10° NNE
NOSS 3-1 (A) 3.4 22:15:30 10° SW 22:21:22 87° WNW 22:27:54 10° NE
SPOT 1/Viking Rocket 3.6 22:17:51 18° SSE 22:21:36 68° ENE 22:26:44 10° N
NOAA 11 4.4 22:18:01 19° SE 22:21:48 55° ENE 22:27:07 10° N
Cosmos 1626 3.5 22:21:48 21° ESE 22:22:33 23° E 22:25:32 10° NE
Cosmos 1346 4.4 22:22:51 23° E 22:22:54 23° E 22:25:23 10° NE
H-2A R/B 3.6 22:20:23 10° SSW 22:24:29 34° W 22:28:36 10° NNW
Cosmos 1703 3.4 22:23:38 23° SSE 22:25:49 52° E 22:29:38 10° NNE
Meteor 2-11 Rocket 4.5 22:20:08 10° N 22:26:19 88° W 22:31:29 15° S
SL-14 R/B 3.4 22:23:01 10° S 22:26:56 77° W 22:30:58 10° N
Cosmos 2315 Rocket 4.4 22:21:05 10° NNW 22:27:11 62° W 22:33:16 10° S
Cosmos 1707 Rocket 3.8 22:22:57 10° NNW 22:27:18 68° W 22:30:46 16° S
Cosmos 2150 Rocket 4.2 22:22:47 10° SSW 22:28:14 81° WNW 22:33:44 10° NNE
YAOGAN 6 2.6 22:27:34 22° S 22:29:47 76° W 22:33:23 10° NNW
OTV 4 1.3 22:27:19 10° SW 22:29:40 31° S 22:29:40 31° S
Cosmos 1666 Rocket 3.8 22:26:15 10° SSW 22:30:37 72° W 22:35:04 10° N
Cosmos 1241 Rocket 4.5 22:25:07 10° SSW 22:31:09 58° ESE 22:37:16 10° NE
Meteor 1-27 4.4 22:25:43 10° NNW 22:31:22 72° W 22:36:03 15° S
Terra 2.9 22:31:05 21° ESE 22:33:16 30° ENE 22:37:24 10° N
SL-08 RB Rocket 3.8 22:32:55 26° SSE 22:35:17 62° ENE 22:39:45 10° N
ATLAS 2AS CENTAUR R/B 3.0 22:36:21 10° SSW 22:43:32 57° ESE 22:51:21 10° NE
Nadezhda 1 Rocket 4.1 22:37:55 10° N 22:43:57 61° E 22:47:23 26° SSE
Cosmos 1470 Rocket 3.5 22:42:22 29° SSE 22:44:22 61° E 22:48:38 10° NNE
Cosmos 2227 Rocket 2.2 22:39:38 12° S 22:44:52 66° ESE 22:50:29 10° NNE
Cosmos 1933 Rocket 3.6 22:43:16 29° SSE 22:45:23 61° E 22:49:48 10° NNE
Cosmos 1300 4.1 22:43:30 10° NNW 22:47:00 34° W 22:49:47 14° SSW
ERBS 2.5 22:44:25 10° SW 22:47:54 75° NW 22:51:24 10° NE
NOSS 0 Rocket 3.9 22:43:50 10° NNW 22:50:02 87° ENE 22:53:27 28° SSE
Tiangong 1 1.6 22:47:29 10° W 22:50:34 57° N 22:52:17 22° ENE
OAO 2 Rocket 3.7 22:46:22 10° WSW 22:51:29 47° S 22:53:39 30° ESE
ATLAS 3B R/B 3.4 22:48:32 10° NNW 22:55:16 45° NE 22:59:20 22° ESE
Cosmos 1745 Rocket 4.0 22:52:10 17° S 22:57:07 88° W 23:03:19 10° N
USA 32 4.3 22:56:27 10° N 23:01:39 64° W 23:04:53 23° SSW
SL-16 R/B 3.1 22:56:37 10° N 23:01:54 37° ENE 23:04:25 25° ESE
Lacrosse 4 Rocket 2.8 22:58:14 10° N 23:02:11 31° NE 23:03:42 25° E
DMSP B5D2-2 4.1 22:59:44 10° NNE 23:04:53 57° E 23:06:47 36° SSE
Cosmos 2333 Rocket 2.2 22:59:07 10° NNW 23:04:53 82° WSW 23:07:32 34° SSE
Cosmos 1709 Rocket 4.3 23:02:51 32° SE 23:05:14 47° E 23:11:02 10° NNE
BREEZE-M TANK 4.4 22:38:53 10° WSW 23:05:29 87° NNW 23:10:15 10° ENE
CZ-4 R/B 4.3 23:01:24 10° N 23:06:15 61° WNW 23:10:05 16° SSW
ARGOS 3.6 23:03:31 24° S 23:06:42 56° W 23:12:01 10° NNW
Cosmos 1455 2.1 23:05:34 10° N 23:09:23 89° WNW 23:10:08 57° S
Cosmos 1937 Rocket 4.4 23:05:39 10° SW 23:10:41 47° WNW 23:15:42 10° N
Cosmos 2297 Rocket 2.1 23:07:58 24° SSW 23:11:30 76° ESE 23:17:11 10° NNE
Cosmos 1933 4.0 23:11:17 10° N 23:15:07 39° ENE 23:15:26 38° E
COSMOS 2455 3.2 23:09:26 10° NNW 23:15:22 56° ENE 23:17:55 33° ESE
COSMOS 2428 4.4 23:11:53 10° NW 23:16:19 24° WSW 23:20:00 13° SSW
Cosmos 2219 Rocket 2.8 23:10:57 10° NW 23:16:20 49° WSW 23:18:54 29° SSW
Cosmos 1726 4.5 23:13:50 10° NW 23:16:33 19° W 23:18:49 12° SW
Cosmos 1386 Rocket 4.4 23:13:36 26° S 23:17:13 83° W 23:23:16 10° N
NOSS 2-3 (E) 4.3 23:18:12 40° ESE 23:18:20 40° ESE 23:23:23 10° NE
Cosmos 192 4.3 23:15:22 10° NNW 23:20:19 86° WSW 23:21:44 47° SSE
CARTOSAT-1 3.6 23:25:07 51° S 23:26:06 73° WSW 23:30:25 10° NNW
Cosmos 1862 Rocket 3.9 23:22:08 10° NNW 23:26:24 58° W 23:27:33 42° SSW
Cosmos 2181 Rocket 4.0 23:31:11 10° N 23:37:35 73° E 23:39:49 43° SSE
Cosmos 1980 4.4 23:33:39 10° NW 23:38:59 44° WSW 23:40:54 33° SSW
CZ-4C R/B 4.3 23:36:35 10° NNW 23:42:30 29° NE 23:48:29 11° E
IGS 5A 3.9 23:43:40 47° SW 23:44:13 51° W 23:48:18 10° NNW
Cosmos 1869 4.2 23:40:27 10° NNW 23:44:16 41° W 23:44:53 38° WSW
SeaSat 1 3.8 23:43:30 25° E 23:45:06 30° NE 23:49:23 10° N
Cosmos 1269 Rocket 4.0 23:40:00 10° NNW 23:45:20 83° WSW 23:46:29 56° S
NOSS 2-3 (C) 3.8 23:44:46 59° S 23:45:34 70° ESE 23:51:06 10° NE
H-2A R/B 2.8 23:46:30 33° SSW 23:48:22 46° W 23:53:36 10° NNW
Cosmos 2237 Rocket 3.1 23:45:42 10° NW 23:50:57 39° WSW 23:52:39 31° SW
FALCON 9 R/B 3.3 23:30:10 10° W 23:51:23 60° SSW 23:54:02 40° SE
Meteor 1-26 Rocket 4.3 23:46:24 10° N 23:52:01 66° E 23:53:14 52° SE
Cosmos 1869 Rocket 3.4 23:53:42 80° S 23:53:57 87° E 23:58:27 10° N
